Location: Little Baddow
(51.7333°N, 0.5667°E)
Time: 02:50:37
(UTC+00:00)

Cosmos 2346 Rocket - Pass Details

Date: 08 November 2025
Orbit: 935 x 979 km, 82.9° (Epoch: 15 December)

Event Time Altitude Azimuth Distance (km) Brightness Sun altitude
Rises 05:54:13 0° 191° (SSW) 3,638 7.5 -11.1°
Reaches altitude 10° 05:56:43 10° 193° (SSW) 2,690 6.8 -10.7°
Maximum altitude 06:02:53 80° 281° (W) 973 4.4 -9.8°
Drops below altitude 10° 06:09:01 10° 9° (N) 2,678 6.7 -8.9°
Sets 06:11:31 0° 10° (N) 3,622 7.4 -8.5°
